Regional Weather Roundup
Issued by NWS

Home | Current Version | Previous Version | Graphics & Text | Print | Product List | Glossary On
Versions: 1 2 3 4 5 6 7 8 9 10 11 12 13 14 15 16 17 18 19 20 21 22 23 24 25 26 27 28 29 30 31 32 33 34 35 36 37 38 39 40 41 42 43 44 45 46 47 48 49 50
000
ASUS43 KMPX 291201
RWRMN
WEATHER ROUNDUP FOR MINNESOTA
NATIONAL WEATHER SERVICE TWIN CITIES/CHANHASSEN MN
600 AM CST THU JAN 29 2015


NOTE: "FAIR" INDICATES FEW OR NO CLOUDS BELOW 12,000 FEET WITH NO
SIGNIFICANT WEATHER AND/OR OBSTRUCTIONS TO VISIBILITY. N/A MEANS
CURRENT SKY AND/OR WEATHER CONDITIONS ARE NOT AVAILABLE.

MNZ060>063-068>070-291300-
   Twin Cities Metro

CITY           SKY/WX    TMP DP  RH WIND       PRES   REMARKS
TWIN CITIES    CLOUDY    34  27  75 NW21G26   30.01R WCI  22
6HR MIN TEMP:  30; 6HR MAX TEMP:  34;

ST PAUL        CLOUDY    34  29  82 NW25G32   30.01R WCI  21
CRYSTAL        MIX PCPN  33  29  85 NW18G24   30.01R WCI  22
BLAINE         CLOUDY    36  30  80 NW20G28   30.01R
LAKEVILLE      CLOUDY    30  28  93 NW17      29.99R WCI  18
EDEN PRAIRIE   CLOUDY    32  28  85 NW20G25   30.01R WCI  20
6HR MIN TEMP:  31; 6HR MAX TEMP:  35; 6HR PCP: TRACE;

SOUTH ST PAUL  CLOUDY    34  31  89 NW13G18   30.00R WCI  25
LAKE ELMO      CLOUDY    34  30  86 NW14G29   29.99R WCI  24
$$
MNZ001>005-007-008-013>017-022>024-027-028-291300-
   Northwest Minnesota

CITY           SKY/WX    TMP DP  RH WIND       PRES   REMARKS
BEMIDJI        CLOUDY    17  15  90 NW21      30.14R WCI   0
HALLOCK        CLOUDY    10   7  85 N29       30.31R WCI -11
ROSEAU         FLURRIES  12   9  85 NW17      30.22R WCI  -5
WARROAD        FLURRIES  10   7  85 NW24G30   30.21R WCI -10
THIEF RVR FALL CLOUDY    12   9  85 NW21      30.24R WCI  -6
CROOKSTON      CLOUDY    16  12  86 N28G35    30.30R WCI  -4
FOSSTON        FLURRIES  12  10  92 NW15      30.22R WCI  -4
DETROIT LAKES  CLOUDY    19  18  93 NW18G25   30.21R WCI   4
MOORHEAD       CLOUDY    21  19  93 N28G35    30.28R WCI   3
PARK RAPIDS    CLOUDY    21  17  84 NW17      30.12R WCI   7
MAHNOMEN       CLOUDY    16  13  87 NW21      30.21R WCI  -1
$$
MNZ006-009>011-018-025>026-291300-
   North Central Minnesota

CITY           SKY/WX    TMP DP  RH WIND       PRES   REMARKS
BAUDETTE       CLOUDY    13   9  84 NW24G32   30.14R WCI  -7
FLAG ISLAND    CLOUDY    10   5  79 NW21G29   30.18R WCI  -9
INTL FALLS     CLOUDY    20  15  81 N18G28    30.06R WCI   5
6HR MIN TEMP:  20; 6HR MAX TEMP:  29;

WASKISH        CLOUDY    19  16  86 NW12      30.14R WCI   7
BIG FORK       CLOUDY    21  19  93 NW9G16    30.07R WCI  11
LONGVILLE      CLOUDY    25  21  86 NW8G21    30.07R WCI  16
GRAND RAPIDS   CLOUDY    25  21  86 NW20G29   30.02R WCI  11
CRANE LAKE     CLOUDY    19  18  93 NW10G17   30.04R WCI   8
ORR            CLOUDY    21  18  86 NW14G23   30.00R WCI   8
COOK           CLOUDY    23  21  93 NW8       30.00R WCI  14
WALKER         CLOUDY    21  18  89 NW15G22   30.10R WCI   7
$$
MNZ012-019>021-037-291300-
   Northeast Minnesota

CITY           SKY/WX    TMP DP  RH WIND       PRES   REMARKS
DULUTH         CLOUDY    28  23  81 NW17G23   29.93R WCI  16
6HR MIN TEMP:  28; 6HR MAX TEMP:  30; 6HR PCP: TRACE;

ELY            CLOUDY    23  19  86 NW17G25   29.94R WCI   9
HIBBING        CLOUDY    27  20  75 N26G33    29.98R WCI  12
EVELETH        CLOUDY    27  23  86 NW13G25   29.98R WCI  16
DULUTH HARBOR  CLOUDY    32  27  80 NW15      29.98R WCI  22
TWO HARBORS    CLOUDY    30  25  80 NW10G20   29.91R WCI  21
SILVER BAY     CLOUDY    30  23  74 NW7G18    29.89R WCI  23
GRAND MARAIS     N/A     30  22  72 VRB7G21   29.88R WCI  23
G MARAIS ARPRT   N/A     23  19  86 NW12G26   29.81R WCI  12
$$
MNZ029>031-032-039>041-046>048-054>057-064-291300-
   West Central Minnesota

CITY           SKY/WX    TMP DP  RH WIND       PRES   REMARKS
FERGUS FALLS   CLOUDY    21  19  93 N24G35    30.25R WCI   4
WHEATON        CLOUDY    25  19  80 NW23G33   30.27R WCI  10
MORRIS         CLOUDY    27  21  80 N31G40    30.18R WCI  10
ALEXANDRIA     CLOUDY    24  21  88 NW13G22   30.15R WCI  12
ELBOW LAKE     CLOUDY    22  19  87 NW25G31   30.20R WCI   5
WADENA         CLOUDY    19  18  93 NW18      30.14R WCI   4
GLENWOOD       CLOUDY    25  21  86 NW18G30   30.14R WCI  11
APPLETON       CLOUDY    28  25  86 NW25G32   30.21R WCI  14
BENSON         CLOUDY    27  23  86 N25G33    30.18R WCI  11
ORTONVILLE     CLOUDY    27  21  80 NW23G30   30.23R WCI  12
MADISON        CLOUDY    32  28  86 NW25G32   30.22R WCI  19
WILLMAR        CLOUDY    28  25  86 NW28      30.15R WCI  13
$$
MNZ033>034-036-042>043-049>051-058-059-291300-
   Central Minnesota

CITY           SKY/WX    TMP DP  RH WIND       PRES   REMARKS
ST CLOUD       CLOUDY    28  23  81 NW18G33   30.06R WCI  15
6HR MIN TEMP:  28; 6HR MAX TEMP:  33; 6HR PCP: TRACE;

SAUK CENTRE    CLOUDY    25  21  87 NW22G30   30.12R WCI  10
PAYNESVILLE    CLOUDY    24  22  90 W22G29    30.11R WCI   9
AITKIN         CLOUDY    30  25  80 NW8G23    30.03R WCI  23
PINE RIVER     CLOUDY    25  21  86 NW13      30.11R WCI  13
BRAINERD       CLOUDY    26  22  84 NW16G29   30.08R WCI  14
STAPLES        CLOUDY    23  19  86 NW16      30.11R WCI  10
LONG PRAIRIE   CLOUDY    25  21  86 NW16G28   30.12R WCI  12
LITTLE FALLS   CLOUDY    28  23  80 NW18G25   30.10R WCI  16
LITCHFIELD     CLOUDY    28  27  93 NW20G37   30.10R WCI  15
BUFFALO        CLOUDY    31  26  84 NW20G26   30.06R WCI  18
MAPLE LAKE     CLOUDY    31  27  87 NW24G32   30.07R WCI  17
$$
MNZ037-044-045-052-053-291300-
   East Central Minnesota

CITY           SKY/WX    TMP DP  RH WIND       PRES   REMARKS
PRINCETON      CLOUDY    32  28  86 NW15G26   30.04R WCI  22
MORA           CLOUDY    32  25  74 NW21G36   30.02R WCI  20
CAMBRIDGE      CLOUDY    34  25  69 NW15G22   30.00R WCI  24
RUSH CITY      CLOUDY    32  27  82 N12       30.01R WCI  23
MOOSE LAKE     CLOUDY    30  25  80 NW12G23   29.98R WCI  21
HINCKLEY       CLOUDY    32  28  86 NW23G29   30.00R WCI  19
CLOQUET        CLOUDY    28  23  80 NW15G21   29.96R WCI  17
MCGREGOR       CLOUDY    30  27  86 NW12G23   30.02R WCI  21
$$
MNZ071>073-080-081-089-090-097-098-291300-
   Southwest Minnesota

CITY           SKY/WX    TMP DP  RH WIND       PRES   REMARKS
MONTEVIDEO     CLOUDY    28  27  93 N21G29    30.19R WCI  15
GRANITE FALLS  CLOUDY    29  25  83 NW23G36   30.19R WCI  15
CANBY          CLOUDY    30  25  84 NW18G28   30.23R WCI  17
MARSHALL       CLOUDY    28  21  74 N28G33    30.20R WCI  13
REDWOOD FALLS  CLOUDY    30  24  78 N28G39    30.14R WCI  15
OLIVIA         CLOUDY    28  27  93 NW24G33   30.13R WCI  14
PIPESTONE      CLOUDY    28  25  86 N21G32    30.18R WCI  15
WINDOM         CLOUDY    30  27  86 NW30G39   30.11R WCI  15
WORTHINGTON    CLOUDY   N/A N/A N/A N33G41    30.15R
JACKSON        CLOUDY    32  27  80 NW31G46   30.10R WCI  17
TRACY          CLOUDY    30  27  90 NW23G32   30.17R WCI  16
SLAYTON        CLOUDY    27  25  89 NW26G36   30.16R WCI  12
$$
MNZ065>067-074>077-082>085-091>093-291300-
   South Central Minnesota

CITY           SKY/WX    TMP DP  RH WIND       PRES   REMARKS
MANKATO        CLOUDY   N/A N/A N/A NW29G39   30.05R
NEW ULM        CLOUDY    28  27  93 NW30G38   30.09R WCI  13
ST JAMES       CLOUDY    32  27  80 NW31G40   30.10R WCI  17
FAIRMONT       CLOUDY    30  25  80 NW31G39   30.06R WCI  15
GLENCOE        CLOUDY    31  28  86 NW22G30   30.07R WCI  18
FARIBAULT      CLOUDY    32  30  93 NW17G24   30.01R WCI  21
OWATONNA       DRIZZLE   32  30  93 NW23G29   30.01R WCI  19
WASECA         CLOUDY    32  30  93 NW23G30   30.04R WCI  19
ALBERT LEA     CLOUDY    32  32 100 NW14G24   30.00R WCI  22
$$
MNZ078>079-086>088-094>096-291300-
   Southeast Minnesota

CITY           SKY/WX    TMP DP  RH WIND       PRES   REMARKS
ROCHESTER      FRZ RAIN  32  30  92 NW22      29.95R FOG     WCI  19
6HR MIN TEMP:  30; 6HR MAX TEMP:  32; 6HR PCP: TRACE;

RED WING       CLOUDY    36  30  80 NW10G18   29.97R
STANTON        CLOUDY    34  30  86 NW22G28   29.97R WCI  22
DODGE CENTER   CLOUDY    34  32  93 NW21      29.96R FOG     WCI  22
WINONA         CLOUDY    34  32  93 NW15      29.94R WCI  24
AUSTIN         CLOUDY    34  30  86 NW16G22   29.97R FOG     WCI  23
PRESTON        CLOUDY    31  29  93 N16G24    29.93R FOG     WCI  20
$$
ABBREVIATIONS USED IN REMARKS
   TC - TEMPERATURES IN CELSIUS
  WCI - WIND CHILL INDEX
   HX - HEAT INDEX
  VSB - VISIBILITY
$$



USA.gov is the U.S. government's official web portal to all federal, state and local government web resources and services.